Flag for China Weather past 2 weeks in Kashgar, Xinjiang, China

Now
50 °F

Clear.


Feels Like: 48 °F
Forecast: 35 / 54 °F
Wind: 6 mph from Southeast

Location: Kashi Airport

Current Time: Mar 5, 2015 at 6:34:41 PM

Latest Report: Mar 5, 2015 at 6:00 PM


Visibility: 4 mi

Pressure: 29.98 "Hg

Humidity: 25%

Dew point: 16 °F

Location of KashgarLocation

Historic Weather in Kashgar — Graph

°F

Kashgar temperature yesterday

Maximum temperature yesterday: 48 °F (at 4:00 PM)
Minimum temperature yesterday: 37 °F (at 7:00 AM)
Average temperature yesterday: 44 °F

Past Weeks' High & Low Weather Summary

 TemperatureHumidityPressure
High54 °F (Feb 22, 6:00 PM)93% (Feb 26, 11:00 PM)30.36 "Hg (Feb 26, 11:00 PM)
Low32 °F (Feb 27, 8:00 AM)22% (Feb 20, 4:00 PM)29.77 "Hg (Feb 26, 6:00 AM)
Average41 °F46%30.05 "Hg
* Reported Feb 18 5:00 PM — Mar 5 5:00 PM, Kashgar, Weather by CustomWeather, © 2015

Note: Actual official high and low records may vary slightly from our data, if they occured in-between our weather recording intervals... More about our weather records

Advertising

Kashgar weather history for previous 24 hours

 ConditionsComfort  
Time TempWeatherWind HumidityBarometerVisibility
5:00 PM
Thu, Mar 5
50 °FClear.3 mph25%30.01 "Hg4 mi
4:00 PM48 °FClear.3 mph29%30.01 "Hg4 mi
3:00 PM50 °FClear.6 mph25%30.04 "Hg4 mi
2:00 PM45 °FClear.3 mph27%30.07 "Hg4 mi
1:00 PM45 °FClear.6 mph25%30.07 "Hg4 mi
12:00 PM43 °FClear.6 mph26%30.07 "Hg4 mi
11:00 AM39 °FClear.3 mph52%30.07 "Hg4 mi
10:00 AM37 °FScattered clouds.No wind52%30.04 "Hg4 mi
9:00 AM36 °FPassing clouds.6 mph60%30.04 "Hg4 mi
8:00 AM36 °FClear.3 mph60%30.01 "Hg4 mi
7:00 AM37 °FClear.8 mph52%30.01 "Hg3 mi
6:00 AM37 °FClear.3 mph38%30.01 "Hg2 mi
5:00 AM39 °FClear.6 mph39%30.01 "Hg3 mi
4:00 AM41 °FQuite cool.6 mph42%30.04 "Hg4 mi
3:00 AM41 °FQuite cool.6 mph45%30.04 "Hg6 mi
2:00 AM43 °FQuite cool.3 mph46%30.04 "Hg6 mi
1:00 AM45 °FQuite cool.3 mph42%30.04 "Hg6 mi
12:00 AM45 °FPassing clouds.3 mph46%30.01 "Hg4 mi
11:00 PM
Wed, Mar 4
46 °FPassing clouds.1 mph40%30.01 "Hg4 mi
10:00 PM46 °FPassing clouds.No wind43%30.01 "Hg4 mi
9:00 PM46 °FPassing clouds.3 mph40%29.98 "Hg5 mi
8:00 PM48 °FScattered clouds.3 mph34%29.98 "Hg5 mi
7:00 PM48 °FPassing clouds.3 mph32%29.95 "Hg4 mi
6:00 PM48 °FClear.3 mph32%29.95 "Hg4 mi
Weather by CustomWeather, © 2015

See weather overviewHow to use our weather pages